Other Surface Observations
Issued by NWS

Home | Current Version | Previous Version | Text Only | Print | Product List | Glossary On
Versions: 1 2 3 4 5 6 7 8 9 10 11 12 13 14 15 16 17 18 19 20 21 22 23 24 25 26 27 28 29 30 31 32 33 34 35 36 37 38 39 40 41 42 43 44 45 46 47 48 49 50
000
SXUS52 KTAE 280518
OSOTAE
OSOTAE
North Florida/South Alabama/Southwest Georgia Weather Roundup
National Weather Service Tallahassee Florida
100 AM EDT FRI APR 28 2017

Note: "fair" indicates few or no clouds below 12,000 feet with no
significant weather and/or obstructions to visibility.

!FLZ017-115-028-034-025-280600
...North Florida...

CITY           SKY/WX    TMP DP  RH WIND       PRES   REMARKS
TALLAHASSEE    FOG       70  69  97 CALM      29.95R VSB 3/4
APALACHICOLA   CLOUDY    75  75 100 S9        29.93R FOG
PERRY          FOG       68  67  97 CALM      29.95S VSB<1/4
CROSS CITY     CLEAR     68  66  94 CALM      29.97R FOG
JACKSONVILLE   CLEAR     70  69  97 CALM      29.96S
$$

!FLZ112-006-005-002-011-280600
...Florida Panhandle...

CITY           SKY/WX    TMP DP  RH WIND       PRES   REMARKS
MARIANNA       CLOUDY    72  71  97 CALM      29.92S
BONIFAY        NOT AVBL
PANAMA CITY NW MOCLDY    74  72  93 SE8       29.91R
TYNDALL AFB    MOCLDY    75  73  94 SE10      29.93R
TYND DRONE APT MOCLDY    73  73 100 SE9       29.93R
DE FUNIAK SPR  CLOUDY    73  73  97 S6        29.91S
EGLIN AFB      CLOUDY    75  73  94 S9        29.89S
DESTIN         MOCLDY    77  77 100 VRB7      29.89R
HURLBURT       MOCLDY    74  73  96 S9        29.87S
CRESTVIEW      CLOUDY    75  72  90 VRB6      29.91R
PENSACOLA      CLOUDY    77  73  87 S12       29.87S
$$

!ALZ063-066-280600
...South Alabama...

CITY           SKY/WX    TMP DP  RH WIND       PRES   REMARKS
DOTHAN         MOCLDY    73  73 100 S9        29.95R
OZARK CAIRNS   CLOUDY    74  72  92 S8        29.90S
FT RUCKER HELI CLOUDY    75  72  90 S8        29.90S
RUCKER HELI 3  CLOUDY    74  72  91 S8        29.90R
RUCKER HELI 2  CLOUDY    74  72  91 S6        29.90S
FLORALA APT    CLOUDY    74  71  91 S5        29.91S
ANDALUSIA      CLOUDY    75  71  87 CALM      29.89R FOG
TROY           CLOUDY    73  72  96 S5        29.90R
EUFALA         FAIR      73  71  93 S3        29.90R
MOBILE         CLOUDY    75  72  90 S12       29.84F
$$

!GAZ120>161-280600
...Southwest and South Central Georgia...

CITY           SKY/WX    TMP DP  RH WIND       PRES   REMARKS
THOMASVILLE    FAIR      72  72 100 SW3       29.96S FOG
BAINBRIDGE     CLEAR     72  70  94 S6        29.94S
MOODY AFB      CLEAR     71  68  92 S5        29.94R
VALDOSTA       CLEAR     69  68  96 CALM      29.95R
MOULTRIE       CLEAR     72  70  94 S6        29.96S FOG
BLAKELY        CLEAR     73  70  88 S3        29.93R
ALBANY         LGT RAIN  74  71  91 S8        29.94S
TIFTON         FAIR      72  72  99 SW6       29.94F
FITZGERALD     CLOUDY    74  71  91 SW5       29.96S
CORDELE        MOCLDY    77  72  83 S3        29.94S
AMERICUS       CLOUDY    72  72 100 S5        29.95R
HOMERVILLE     FAIR      72  68  88 S5        29.95S
$$

!GMZ750-755-770-775-280600
...Coastal and Buoy Obs...

STATION/POSITION TIME  TEMP    WIND        PRES    VSBY  WAVE
                       AIR SEA DIR/SP/G                  HT/PER
                 (UTC) (F)     (DEG/KT/KT) (MB)    (MI)  (FT/S)
KEATON BEACH     0500   75     200/  6/  7 1014.2R
CEDAR KEY        0500   76     180/  3/  3 1015.1R
C TOWER          0500   73     190/ 14/ 15 1014.2R
APALACHICOLA BUO 0450   74 74  170/  8/  8 1013.6R         3/ 6
PANAMA CITY BUOY 0450   75 75  140/ 10/ 14 1012.7R         3/ 7
MOBILE BUOY      0500   76 76  140/ 12/ 16 1011.0
ORANGE BCH AL BU 0450   75 75  170/ 14/ 16 1010.9R         4/ 7
$$




USA.gov is the U.S. government's official web portal to all federal, state and local government web resources and services.